Flag for Spain Weather past 2 weeks in Las Palmas, Canary Islands, Spain

Now
66 °F

Passing clouds.


Feels Like: 66 °F
Forecast: 66 / 72 °F
Wind: 14 mph from North

Location: Las Palmas De Gran Canaria / Gando

Current Time: May 26, 2015 at 1:41:29 AM

Latest Report: May 26, 2015 at 1:00 AM


Visibility: N/A

Pressure: 30.09 "Hg

Humidity: 68%

Dew point: 55 °F

Location of Las PalmasLocation

Historic Weather in Las Palmas — Graph

°F

Las Palmas temperature yesterday

Maximum temperature yesterday: 77 °F (at 2:00 PM)
Minimum temperature yesterday: 64 °F (at 2:00 AM)
Average temperature yesterday: 69 °F

Past Weeks' High & Low Weather Summary

 TemperatureHumidityPressure
High90 °F (May 13, 2:00 PM)88% (May 11, 7:30 AM)30.21 "Hg (May 11, 7:30 AM)
Low64 °F (May 11, 3:30 AM)19% (May 13, 7:30 AM)29.92 "Hg (May 11, 7:00 PM)
Average72 °F60%30.06 "Hg
* Reported Midnight between May 10 and May 11 — May 26 12:30 AM, Las Palmas, Weather by CustomWeather, © 2015

Note: Actual official high and low records may vary slightly from our data, if they occured in-between our weather recording intervals... More about our weather records

Advertising

Las Palmas weather history for previous 24 hours

 ConditionsComfort  
Time TempWeatherWind HumidityBarometerVisibility
12:30 AM
Tue, May 26
66 °FPassing clouds.10 mph68%30.09 "HgN/A
12:00 AM66 °FPassing clouds.13 mph68%30.09 "HgN/A
11:30 PM
Mon, May 25
66 °FPassing clouds.13 mph68%30.09 "HgN/A
11:00 PM66 °FPassing clouds.14 mph68%30.09 "HgN/A
10:30 PM68 °FPassing clouds.14 mph64%30.09 "HgN/A
10:00 PM68 °FPassing clouds.15 mph64%30.09 "HgN/A
9:30 PM68 °FPartly sunny.16 mph60%30.07 "HgN/A
9:00 PM68 °FScattered clouds.17 mph60%30.07 "HgN/A
8:30 PM68 °FScattered clouds.22 mph60%30.07 "HgN/A
8:00 PM70 °FScattered clouds.23 mph57%30.04 "HgN/A
7:30 PM72 °FScattered clouds.21 mph50%30.04 "HgN/A
7:00 PM72 °FScattered clouds.25 mph53%30.04 "HgN/A
6:30 PM72 °FScattered clouds.25 mph53%30.04 "HgN/A
6:00 PM72 °FPassing clouds.29 mph53%30.04 "HgN/A
5:30 PM73 °FPassing clouds.26 mph50%30.04 "HgN/A
5:00 PM73 °FPassing clouds.28 mph44%30.04 "HgN/A
4:30 PM73 °FPassing clouds.28 mph47%30.04 "HgN/A
4:00 PM75 °FPassing clouds.25 mph41%30.07 "HgN/A
3:30 PM75 °FPassing clouds.26 mph41%30.07 "HgN/A
3:00 PM75 °FPassing clouds.25 mph41%30.07 "HgN/A
2:30 PM75 °FPassing clouds.25 mph39%30.07 "HgN/A
2:00 PM77 °FScattered clouds.23 mph34%30.09 "HgN/A
1:30 PM75 °FScattered clouds.22 mph39%30.09 "HgN/A
1:00 PM75 °FScattered clouds.23 mph41%30.09 "HgN/A
12:30 PM73 °FScattered clouds.22 mph44%30.09 "HgN/A
12:00 PM73 °FScattered clouds.21 mph44%30.09 "HgN/A
11:30 AM72 °FScattered clouds.18 mph50%30.12 "HgN/A
11:00 AM68 °FPartly sunny.24 mph64%30.12 "HgN/A
10:30 AM70 °FPartly sunny.16 mph57%30.12 "HgN/A
10:00 AM70 °FPartly sunny.13 mph53%30.09 "HgN/A
9:30 AM70 °FPartly sunny.15 mph57%30.09 "HgN/A
9:00 AM68 °FPartly sunny.13 mph56%30.09 "HgN/A
8:30 AM66 °FPartly sunny.13 mph60%30.09 "HgN/A
8:00 AM66 °FPassing clouds.12 mph60%30.09 "HgN/A
7:30 AM64 °FPassing clouds.12 mph68%30.09 "HgN/A
7:00 AM64 °FPassing clouds.13 mph68%30.07 "HgN/A
6:30 AM64 °FPassing clouds.15 mph68%30.07 "HgN/A
6:00 AM64 °FPassing clouds.16 mph68%30.07 "HgN/A
5:30 AM64 °FPassing clouds.16 mph73%30.07 "HgN/A
5:00 AM64 °FPassing clouds.20 mph73%30.07 "HgN/A
4:30 AM66 °FPassing clouds.17 mph64%30.09 "HgN/A
4:00 AM66 °FPassing clouds.14 mph60%30.07 "HgN/A
3:30 AM66 °FPassing clouds.14 mph64%30.07 "HgN/A
3:00 AM66 °FPassing clouds.13 mph68%30.07 "HgN/A
2:30 AM64 °FPassing clouds.15 mph73%30.09 "HgN/A
2:00 AM64 °FPassing clouds.18 mph73%30.09 "HgN/A
1:30 AM66 °FPassing clouds.9 mph68%30.09 "HgN/A
1:00 AM66 °FPassing clouds.12 mph68%30.09 "HgN/A
Weather by CustomWeather, © 2015

See weather overviewHow to use our weather pages